Location: Cape Canaveral
(28.3922°N, 80.6077°W)
Time: 12:14:12
(UTC-05:00)

ISS - Pass Details

Date: 07 December 2021
Orbit: 413 x 422 km, 51.6° (Epoch: 27 January)

Event Time Altitude Azimuth Distance (km) Brightness Sun altitude
Rises 18:53:45 0° 319° (NW) 2,373 0.4 -18.8°
Reaches altitude 10° 18:55:52 10° 322° (NW) 1,504 -0.7 -19.3°
Enters shadow 18:58:49 61° 354° (N) 480 -3.6 -19.9°
